THOR ABLESTAR DEB, 469

Orbit data source: Space-Track

THOR ABLESTAR DEB, 469 is space debris in LEO originally from a launch on Thu, 29 Jun 1961 UTC launched from the Air Force Eastern Test Range (AFETR). Debris objects in space refer to the collection of defunct objects orbiting the Earth. Examples of debris include non-operational satellites, rocket bodies, and fragments generated from explosions, collisions, or faulty payload assembly.

Loading next visibility...
THOR ABLESTAR DEB details
Identifier
469, 1961-015FF
Orbit
LEO
Last TLE update18 hours ago
Origin
Flag of USUSAF SSD (US)
ManufacturerUnknown
MissionSpacecraft
Bus & MotorUnknown
MassUnknown
Launch date (UTC)
1961-06-29 (64 years ago)
Launch vehicleUnknown
Launch site
Air Force Eastern Test Range (AFETR)
Object type
Payload
Rocket body
Debris
Shape & HBRUnknown
Radar Cross SectionSmall (<0.1 m²)

Expand to show TLE details & history

TLE from 18 hours ago
0 THOR ABLESTAR DEB
1 00469U 61015FF  25014.58366257  .00002250  00000-0  82591-3 0  9993
2 00469  66.8343  74.6019 0063675 230.1223 129.4269 14.33414900278636
Epoch: 2025-01-14T14:00Z
Definitive object data (Epoch: 2025-01-14T14:00:28.446Z)
Latitude0.00003°
Longitude110.19512°
Altitude811.584 km
Speed7.433 km/s
True Right ascension04h 58m 24s
True Declination0° 00' 00"
Sunlit
Object was in full shadow at TLE epoch
Visualization TLE readout
Latitude-14.1794°
Longitude102.02262°
Altitude804.532 km
Speed7.441 km/s
Apparent Right ascension01h 40m 26s
Apparent Declination-40° 04' 11"
Sunlit
Object is in full shadow
Visualization observer readout
Local Sidereal Time09:01:03
Azimuth245.69° WSW
Elevation-37.974°
Doppler factor1
Orbital elements
Apogee altitude824.267 km
Perigee altitude733.124 km
Semi-major axis7,156.832 km
Eccentricity0.0063675
Inclination66.8343°
RAAN74.6019°
Arg. of periapsis230.1223°
True anomaly129.98767°
Mean anomaly129.4269°
Eccentric anomaly129.70757°
Mean motion3.58477 °/min
BSTAR0.00082591
Orbital period100.42 mins
Loading maneuver chart data...

THOR ABLESTAR DEB Visibility forecast

Observer location: undefined°, undefined

Span
Click to sort rows by Start time (UTC) header in descending order
Start Az.
Max El. time (UTC)
Max El. Az.
Max El.
End time (UTC)
End Az.
9 mins2025-01-15 13:59:22.283Z344.152° N2025-01-15 14:04:22.283Z59.915° ENE34.531°2025-01-15 14:08:22.283Z122.847° SE
6 mins2025-01-15 15:44:22.283Z293.306° NW2025-01-15 15:47:22.283Z248.095° W22.796°2025-01-15 15:50:22.283Z206.444° SW
8 mins2025-01-16 04:39:22.283Z173.332° S2025-01-16 04:43:22.283Z99.056° ESE33.828°2025-01-16 04:47:22.283Z45.469° ENE
7 mins2025-01-16 06:23:22.283Z263.951° W2025-01-16 06:26:22.283Z311.319° NW26.286°2025-01-16 06:30:22.283Z5.192° NNE
|